Tracking 19634 objects as of 21-May-2019
HD Live streaming from Space Station
objects crossing your sky now

COSMOS 2513

Track COSMOS 2513 now!
COSMOS 2513 is classified as:


NORAD ID: 41121
Int'l Code: 2015-075A
Perigee: 35,776.1 km
Apogee: 35,811.9 km
Inclination: 0.1 °
Period: 1,436.1 minutes
Semi major axis: 42164 km
RCS: Unknown
Launch date: December 13, 2015
Source: Commonwealth of Independent States (former USSR) (CIS)
Launch site: TYURATAM MISSILE AND SPACE COMPLEX (TTMTR)

COSMOS 2513 is a Russian geostationary military communications satellite.
aabbcc
Your satellite tracking list
Your tracking list is empty




NASA's NSSDC Master Catalog

Two Line Element Set (TLE):
1 41121U 15075A   19140.54137853 -.00000147  00000-0  00000+0 0  9990
2 41121   0.0635 103.1944 0004251 316.1697  93.6770  1.00270858 12682
Source of the keplerian elements: AFSPC